Regional Weather Roundup
Issued by NWS Little Rock, AR

Home | Current Version | Previous Version | Text Only | Print | Product List | Glossary On
Versions: 1 2 3 4 5 6 7 8 9 10 11 12 13 14 15 16 17 18 19 20 21 22 23 24 25 26 27 28 29 30 31 32 33 34 35 36 37 38 39 40 41 42 43 44 45 46 47 48 49 50
000
ASUS44 KLZK 210012
RWRLZK

WEATHER ROUNDUP FOR ARKANSAS
NATIONAL WEATHER SERVICE LITTLE ROCK AR
600 PM CST MON FEB 20 2017

NOTE: "FAIR" INDICATES FEW OR NO CLOUDS BELOW 12,000 FEET WITH NO
SIGNIFICANT WEATHER AND/OR OBSTRUCTIONS TO VISIBILITY.

ARZ001-003-010-029-210100-
NORTHWEST ARKANSAS

CITY           SKY/WX    TMP DP  RH WIND       PRES   REMARKS
FAYETTEVILLE   LGT RAIN  60  58  92 CALM      29.94R
6HR MIN TEMP:  60; 6HR MAX TEMP:  67; 6HR PCP: TRACE;

FORT SMITH     LGT RAIN  63  57  81 CALM      29.92S
6HR MIN TEMP:  63; 6HR MAX TEMP:  68; 6HR PCP:  0.01;

HARRISON       PTCLDY    65  55  70 NW3       29.92R
6HR MIN TEMP:  65; 6HR MAX TEMP:  69;

BENTONVILLE    MOCLDY    61  54  77 CALM      29.94S
6HR MIN TEMP:  61; 6HR MAX TEMP:  66;

ROGERS         CLOUDY    60  55  83 W7        29.95R
6HR MIN TEMP:  60; 6HR MAX TEMP:  66; 6HR PCP:  0.01;

SILOAM SPGS    CLOUDY    61  54  77 SW3       29.93F
6HR MIN TEMP:  61; 6HR MAX TEMP:  64;

HIGHFILL       CLOUDY    61  56  83 SW5       29.93S
6HR MIN TEMP:  61; 6HR MAX TEMP:  65;

SPRINGDALE     MOCLDY    61  57  88 W7        29.96R
$$

ARZ004-005-016-210100-
NORTH CENTRAL ARKANSAS

CITY           SKY/WX    TMP DP  RH WIND       PRES   REMARKS
BATESVILLE     PTCLDY    73  59  60 SE5       29.92R
6HR MIN TEMP:  73; 6HR MAX TEMP:  79;

FLIPPIN        CLOUDY    68  55  64 W9        29.88R
6HR MIN TEMP:  68; 6HR MAX TEMP:  75; 6HR PCP:  0.03;

MTN HOME       CLOUDY    71  56  58 CALM      29.89S
6HR MIN TEMP:  71; 6HR MAX TEMP:  75;

$$

ARZ040-041-210100-
WEST CENTRAL ARKANSAS

CITY           SKY/WX    TMP DP  RH WIND       PRES   REMARKS
MENA           CLOUDY    61  59  94 CALM      29.94S
MOUNT IDA      LGT RAIN  63  56  78 VRB3      29.92R
6HR MIN TEMP:  63; 6HR MAX TEMP:  73; 6HR PCP: TRACE;

$$

ARZ009-017-025-026-028-210100-
NORTHEAST ARKANSAS

CITY           SKY/WX    TMP DP  RH WIND       PRES   REMARKS
CORNING        FAIR      66  57  72 SE10      29.95S
JONESBORO      CLOUDY    70  54  56 SE10      29.94S
6HR MIN TEMP:  70; 6HR MAX TEMP:  77;

NEWPORT        CLOUDY    70  61  73 SE12      29.92S
6HR MIN TEMP:  70; 6HR MAX TEMP:  78;

WALNUT RIDGE   PTCLDY    70  54  56 SE12      29.93S
6HR MIN TEMP:  70; 6HR MAX TEMP:  77;

BLYTHEVILLE    CLOUDY    69  55  60 S6        29.97S
6HR MIN TEMP:  69; 6HR MAX TEMP:  78;

$$

ARZ022-023-033-042-044-210100-
CENTRAL ARKANSAS

CITY           SKY/WX    TMP DP  RH WIND       PRES   REMARKS
LITTLE ROCK    LGT RAIN  65  65 100 SE3       29.89F
6HR MIN TEMP:  65; 6HR MAX TEMP:  79; 6HR PCP:  0.09;

N LITTLE ROCK    N/A     66  63  91 SE3       29.90S
6HR MIN TEMP:  66; 6HR MAX TEMP:  76;

JACKSONVILLE   CLOUDY    65  65 100 E6        29.89F
6HR MIN TEMP:  65; 6HR MAX TEMP:  79; 6HR PCP:  0.51;

SEARCY         CLOUDY    72  63  73 S8        29.92R
6HR MIN TEMP:  72; 6HR MAX TEMP:  80;

HOT SPRINGS    CLOUDY    68  54  60 W10G17    29.93R
6HR MIN TEMP:  68; 6HR MAX TEMP:  75;

RUSSELLVILLE   CLOUDY    68  57  68 W3        29.89S
6HR MIN TEMP:  68; 6HR MAX TEMP:  76;

CLINTON        DRIZZLE   70  61  73 CALM      29.90R
$$

ARZ036-210100-
EAST ARKANSAS

CITY           SKY/WX    TMP DP  RH WIND       PRES   REMARKS
WEST MEMPHIS   PTCLDY    67  52  58 SE7       29.95S
6HR MIN TEMP:  67; 6HR MAX TEMP:  77;

$$

ARZ050-053-066-070-073-210100-
SOUTHWEST ARKANSAS

CITY           SKY/WX    TMP DP  RH WIND       PRES   REMARKS
ARKADELPHIA    LGT RAIN  63  57  81 W9        29.95R
6HR MIN TEMP:  63; 6HR MAX TEMP:  74; 6HR PCP: TRACE;

CAMDEN         RAIN      63  57  82 W9G18     29.94R
TEXARKANA      RAIN      59  59 100 CALM      29.93F
6HR MIN TEMP:  59; 6HR MAX TEMP:  66; 6HR PCP:  0.12;

EL DORADO      RAIN      61  60  97 W12       29.93S
6HR MIN TEMP:  61; 6HR MAX TEMP:  76; 6HR PCP:  0.29;

DE QUEEN       LGT RAIN  60  60 100 E7        29.89F
6HR MIN TEMP:  60; 6HR MAX TEMP:  64; 6HR PCP: TRACE;

$$

ARZ056-057-069-210100-
SOUTHEAST ARKANSAS

CITY           SKY/WX    TMP DP  RH WIND       PRES   REMARKS
PINE BLUFF     CLOUDY    69  61  75 W8        29.89F
6HR MIN TEMP:  69; 6HR MAX TEMP:  79; 6HR PCP: TRACE;

STUTTGART      CLOUDY    73  57  56 CALM      29.91F
6HR MIN TEMP:  73; 6HR MAX TEMP:  79;

MONTICELLO     CLOUDY    74  61  63 SE7       29.89S
6HR MIN TEMP:  73; 6HR MAX TEMP:  78;


$$





USA.gov is the U.S. government's official web portal to all federal, state and local government web resources and services.